Content
SEND FEEDBACK

Daily
Averages
Monthly
Summary
United States of America

TRAVERSE CITY, MICHIGAN


Home > North America > United States > Michigan
Elevation: 189 meters     Latitude: 44 44N     Longitude: 085 35W

WEATHER
 
SELECT A DAY
Number of Records: 22,085;   Date Range: 1/1/12 - 9/30/14
 
SHARE

PRINT THIS DATA

[ ← Previous Day ]
WEATHER ALMANAC - 31 JANUARY, 2013
[ Next Day → ]
[ °F ]   °C
Weather ElementAverageHighLow
Temperature-7.1 °C-4 °C (12:14 am)-9 °C (7:19 pm)
Dewpoint-10.5 °C-7 °C (12:14 am)-13.3 °C (8:53 pm)
Humidity77.6 %89 % (1:53 am)68 % (9:53 am)
Barometer1000 hPa1011.9 hPa (11:53 pm)990.9 hPa (12:14 am)
Wind Speed25.4 km/h35.2 km/h (4:00 am)
Wind Gust46.3 km/h (4:35 am)
Weather ElementAverage
Visibility4.5 km
Wind DirectionWNW (288.7 °)

Weather ElementTotal
Precipitation1.52 mm
Heating Degree Days24.8 (Base 18.3)
Averaged from 54 records on 31 January, 2013
WEATHER CONDITIONS BREAKOUT
WIND DIRECTION BREAKOUT
WEATHER BY HOUR - 31 JANUARY, 2013
[ °F ]   °C
Local TimeTemperatureDewpointHumidityBarometerVisibilityWind DirectionWind SpeedGust SpeedPrecipitationEventsConditions
12:14 AM-4 °C-7 °C80 %990.9 hPa2.4 kmNW (310°)13 km/h0 mmSnowLight Snow
12:35 AM-5 °C-8 °C80 %991.2 hPa4.8 kmWNW (300°)24.1 km/h37 km/h0.25 mmSnowLight Snow
12:46 AM-5 °C-8 °C80 %991.5 hPa11.3 kmNW (310°)24.1 km/h0.25 mmOvercast
12:53 AM-5 °C-8.3 °C78 %992.6 hPa12.9 kmNW (310°)24.1 km/h0.25 mmOvercast
1:11 AM-5 °C-8 °C80 %992.2 hPa4 kmWNW (290°)25.9 km/h0 mmSnowLight Snow
1:23 AM-6 °C-8 °C86 %992.2 hPa1.9 kmWNW (290°)29.6 km/h37 km/h0 mmSnowLight Snow
1:43 AM-6 °C-8 °C86 %992.2 hPa1.3 kmWNW (300°)22.2 km/h0 mmSnowLight Snow
1:53 AM-5.6 °C-7.2 °C89 %993.6 hPa0.8 kmWNW (300°)18.5 km/h0 mmFog-SnowSnow
2:09 AM-6 °C-8 °C86 %992.9 hPa0.3 kmNW (310°)22.2 km/h38.9 km/h0 mmFog-SnowHeavy Snow
2:27 AM-6 °C-8 °C86 %993.2 hPa0.8 kmWNW (290°)22.2 km/h0.25 mmFog-SnowSnow
2:45 AM-6 °C-8 °C86 %993.6 hPa0.8 kmWNW (300°)31.5 km/h38.9 km/h0.25 mmFog-SnowSnow
2:53 AM-6.1 °C-8.3 °C85 %994.6 hPa0.3 kmNW (310°)22.2 km/h38.9 km/h0.25 mmFogLight Freezing Fog
3:05 AM-6 °C-8 °C86 %993.9 hPa0.8 kmWNW (300°)25.9 km/h42.6 km/h0 mmFog-SnowSnow
3:19 AM-7 °C-9 °C86 %994.2 hPa1.3 kmWNW (290°)27.8 km/h38.9 km/h0 mmSnowLight Snow
3:37 AM-7 °C-9 °C86 %994.2 hPa1.6 kmWNW (290°)27.8 km/h40.7 km/h0 mmSnowLight Snow
3:53 AM-7.2 °C-10 °C81 %995.3 hPa1.9 kmWest (280°)33.3 km/h44.4 km/h0 mmSnowLight Snow
4:00 AM-7 °C-10 °C80 %994.6 hPa2.4 kmWest (280°)35.2 km/h44.4 km/h0 mmSnowLight Snow
4:35 AM-7 °C-11 °C74 %994.9 hPa4 kmWest (280°)31.5 km/h46.3 km/h0 mmOvercast
4:38 AM-7 °C-11 °C74 %995.3 hPa4.8 kmWest (280°)31.5 km/h46.3 km/h0 mmOvercast
4:53 AM-7.2 °C-10.6 °C77 %996.3 hPa4.8 kmWNW (290°)31.5 km/h44.4 km/h0 mmOvercast
5:01 AM-7 °C-11 °C74 %995.6 hPa4 kmWest (280°)31.5 km/h44.4 km/h0 mmSnowLight Snow
5:17 AM-7 °C-11 °C74 %995.9 hPa4.8 kmWest (280°)27.8 km/h46.3 km/h0 mmSnowLight Snow
5:29 AM-7 °C-11 °C74 %995.9 hPa3.2 kmWest (280°)33.3 km/h40.7 km/h0 mmSnowLight Snow
5:38 AM-7 °C-11 °C74 %996.3 hPa2.9 kmWNW (290°)31.5 km/h0 mmSnowLight Snow
5:53 AM-7.2 °C-10.6 °C77 %997.3 hPa4 kmWNW (290°)29.6 km/h0 mmSnowLight Snow
6:27 AM-8 °C-11 °C79 %997 hPa2.4 kmWest (280°)31.5 km/h42.6 km/h0 mmSnowLight Snow
6:51 AM-8 °C-11 °C79 %997.3 hPa3.2 kmWest (280°)27.8 km/h42.6 km/h0 mmSnowLight Snow
6:53 AM-7.8 °C-10.6 °C81 %998.3 hPa3.2 kmWest (280°)29.6 km/h42.6 km/h0 mmSnowLight Snow
7:12 AM-8 °C-11 °C79 %998 hPa4.8 kmWest (280°)27.8 km/h0 mmSnowLight Snow
7:53 AM-7.8 °C-11.7 °C74 %999.3 hPa11.3 kmWest (280°)27.8 km/h0 mmSnowLight Snow
8:53 AM-7.8 °C-12.2 °C71 %1000.7 hPa11.3 kmWest (280°)27.8 km/h0 mmSnowLight Snow
9:53 AM-7.8 °C-12.8 °C68 %1001.7 hPa11.3 kmWest (280°)27.8 km/h40.7 km/h0 mmSnowLight Snow
10:53 AM-7.8 °C-11.7 °C74 %1003 hPa4.8 kmWest (280°)25.9 km/h0 mmSnowLight Snow
11:53 AM-7.2 °C-11.7 °C71 %1004.1 hPa4.8 kmWest (280°)25.9 km/h40.7 km/h0 mmSnowLight Snow
12:36 PM-7 °C-11 °C74 %1003 hPa2.4 kmWest (270°)24.1 km/h0 mmSnowLight Snow
12:59 PM-7 °C-11 °C74 %1003 hPa4.8 kmWest (280°)27.8 km/h42.6 km/h0 mmSnowLight Snow
1:53 PM-7.2 °C-11.1 °C74 %1004.7 hPa4.8 kmWest (280°)25.9 km/h0 mmSnowLight Snow
2:53 PM-7.2 °C-12.2 °C68 %1005.4 hPa11.3 kmWest (280°)29.6 km/h0 mmSnowLight Snow
3:53 PM-7.8 °C-11.1 °C78 %1006.4 hPa4.8 kmWest (280°)22.2 km/h37 km/h0 mmSnowLight Snow
4:11 PM-8 °C-11 °C79 %1005.8 hPa4 kmWest (270°)24.1 km/h35.2 km/h0 mmSnowLight Snow
4:27 PM-8 °C-12 °C73 %1005.8 hPa6.4 kmWest (280°)22.2 km/h0 mmSnowLight Snow
4:53 PM-7.8 °C-11.7 °C74 %1007.5 hPa6.4 kmWest (280°)18.5 km/h0 mmSnowLight Snow
5:39 PM-8 °C-12 °C73 %1006.8 hPa3.2 kmWest (280°)18.5 km/h0 mmSnowLight Snow
5:45 PM-8 °C-12 °C73 %1007.1 hPa1.9 kmWest (280°)18.5 km/h0 mmSnowLight Snow
5:53 PM-8.3 °C-11.1 °C81 %1008.1 hPa3.2 kmWNW (290°)16.7 km/h0 mmSnowLight Snow
6:24 PM-8 °C-12 °C73 %1007.5 hPa2.4 kmWNW (300°)22.2 km/h0 mmSnowLight Snow
6:38 PM-8 °C-11 °C79 %1007.8 hPa1.3 kmWNW (300°)20.4 km/h0 mmSnowLight Snow
6:42 PM-8 °C-11 °C79 %1007.8 hPa0.8 kmWNW (290°)24.1 km/h0 mmSnowSnow
6:53 PM-8.3 °C-11.1 °C81 %1009.1 hPa1.3 kmWNW (290°)22.2 km/h0 mmSnowLight Snow
7:19 PM-9 °C-12 °C79 %1008.1 hPa4.8 kmWest (280°)20.4 km/h0 mmSnowLight Snow
7:53 PM-8.3 °C-12.2 °C74 %1009.8 hPa4.8 kmWNW (290°)24.1 km/h0 mmSnowLight Snow
8:53 PM-8.3 °C-13.3 °C68 %1010.2 hPa4.8 kmNW (310°)22.2 km/h0 mmSnowLight Snow
10:53 PM-8.3 °C-13.3 °C68 %1011.5 hPa16.1 kmWNW (300°)18.5 km/hOvercast
11:53 PM-8.3 °C-12.8 °C71 %1011.9 hPa9.7 kmNW (310°)18.5 km/h0 mmSnowLight Snow
Hourly data recorded from KTVC, located 0 kilometers away from Traverse City, Michigan







STORIES FROM OUR PARTNERS